Regional Weather Roundup
Issued by NWS Wakefield, VA

Home | Current Version | Previous Version | Graphics & Text | Print | Product List | Glossary Off
Versions: 1 2 3 4 5 6 7 8 9 10 11 12 13 14 15 16 17 18 19 20 21 22 23 24 25 26 27 28 29 30 31 32 33 34 35 36 37 38 39 40 41 42 43 44 45 46 47 48 49 50

023
ASUS41 KAKQ 282215
RWRAKQ

REGIONAL WEATHER ROUNDUP
NATIONAL WEATHER SERVICE WAKEFIELD VA
600 PM EDT WED SEP 28 2016

Note: "fair" indicates few or no clouds below 12,000 feet with no
significant weather and/or obstructions to visibility. * = Denotes
station may not report precipitation (e.g., rain,snow,etc.),
thunder or fog.

VAZ042-051-052>054-056-282300-
NORTHERN VIRGINIA

CITY           SKY/WX    TMP DP  RH WIND       PRES   REMARKS
WASH NATIONAL  TSTM      70  68  93 E10       30.01R
DULLES         LGT RAIN  67  65  93 CALM      30.00R FOG
FORT BELVOIR   DRIZZLE   68  66  94 VRB3      29.99S
QUANTICO       CLOUDY    70  67  90 E10       29.99R
FREDERICKSBRG* PTSUNNY   68  68 100 CALM      29.97R
STAFFORD*      CLOUDY    68  67  98 NE5       30.02R
WARRENTON      DRIZZLE   68  63  84 N5        29.98S
CULPEPER*      CLOUDY    69  68  97 CALM      29.99S
MANASSAS*      CLOUDY    66  66 100 CALM      29.99R
LEESBURG*      HVY RAIN  64  64 100 N7        30.02R VSB 1/2
WINCHESTER     DRIZZLE   63  61  94 NE3       30.01S
FRONT ROYAL*   CLOUDY    63  63 100 N3        30.00S
LURAY*         CLOUDY    66  64  94 N8        29.99R
$$

VAZ048-049-060>072-079>083-282300-
CENTRAL AND SOUTH CENTRAL VIRGINIA

CITY           SKY/WX    TMP DP  RH WIND       PRES   REMARKS
RICHMOND       LGT RAIN  69  67  93 NE13      29.94R
CHESTERFIELD*  MOCLDY    72  57  60 N16G26    29.94R THUNDER
PETERSBURG*    CLOUDY    79  63  58 SE7       29.92R
HANOVER        NOT AVBL
TAPPAHANNOCK*  TSTM      72  72 100 N8        29.98R
QUINTON*       CLOUDY    73  71  95 NE6       29.94R
CHARLOTTSVILLE CLOUDY    67  63  87 NE9       29.98R
GORDONSVILLE*  NOT AVBL
ORANGE*          N/A     66  66 100 CALM      30.00R
LOUISA*        CLOUDY    72  70  94 NE3       29.96R
BUMPASS*       CLOUDY    68  68 100 E5        29.97R
FARMVILLE*     CLOUDY    71  69  94 N10       29.92S
CREWE*         CLOUDY    73  73 100 W6        29.94R
FORT PICKETT*  MOCLDY    76  72  87 CALM      29.92R
CHASE CITY*    CLOUDY    68  66  94 SE9G17    29.92S
CLARKSVILLE*   CLOUDY    72  70  94 NE3       29.92R
SOUTH HILL*    CLOUDY    76  73  90 S7        29.97F
LAWRENCEVILLE* FAIR      77  72  82 S7        29.92S
EMPORIA*         N/A     73  70  88 E6        29.95R
$$

VAZ088>098-282300-
SOUTHEAST VIRGINIA

CITY           SKY/WX    TMP DP  RH WIND       PRES   REMARKS
NORFOLK        PTCLDY    76  68  76 SE9       29.97R
VIRGINIA BEACH MOCLDY    75  69  81 SE8       29.96S
NORFOLK NAVAL  CLOUDY    76  67  73 SE12      29.98R
WEST POINT*    MOCLDY    74  68  81 E12G20    29.93F
SALUDA*        CLOUDY    74  70  88 E9G28     29.95S
NEWPORT NEWS   CLOUDY    74  68  81 SE13      29.95S
LANGLEY AFB    CLOUDY    76  68  78 SE13G18   29.96R
FORT EUSTIS    MOCLDY    73  70  90 SE9       29.92F
WILLIAMSBURG*  MOCLDY    73  72  94 SE6       29.96R
HR EXEC AP*    FAIR      75  68  78 SE7       29.98S
FRANKLIN*      TSTM      74  72  92 SE6       29.95R
US460-WAKEFLD  CLOUDY    73  70  90 VRB3      29.93F
$$

VAZ020-022-025-037-045-282300-
WEST CENTRAL AND SOUTHWEST VIRGINIA

CITY           SKY/WX    TMP DP  RH WIND       PRES   REMARKS
STAUNTON*      CLOUDY    67  62  83 E5        30.00R
WAYNESBORO*    CLOUDY    65  62  90 SE5       29.98S
HOT SPRINGS VA CLOUDY    65  60  83 SE8       30.02R
LYNCHBURG      CLOUDY    72  68  87 E9        29.92F
DANVILLE       PTSUNNY   68  67  96 CALM      29.91S
SOUTH BOSTON*  FAIR      68  66  94 CALM      29.91F
MARTINSVILLE   LGT RAIN  73  68  86 SE5       29.93S
ROANOKE        PTSUNNY   69  65  86 E5        29.93F
BLACKSBURG     HVY RAIN  67  65  94 CALM      29.98S
DUBLIN*        SUNNY     72  64  76 E5        29.95S
MARION*        SUNNY     75  50  41 SW6       29.97R
HILLSVILLE*    CLOUDY    70  65  82 S7        29.96S
RICHLANDS*     FAIR      74  46  36 W6        29.94S
WISE*          SUNNY     72  28  20 S8        29.95F
ABINGDON*      SUNNY     78  42  27 W8        29.92S
$$

MDZ021>025-VAZ099-100-282300-
SOUTHERN MARYLAND AND THE DELMARVA PENINSULA

CITY           SKY/WX    TMP DP  RH WIND       PRES   REMARKS
PATUXENT RIVER CLOUDY    71  67  87 E12       29.98R THUNDER
BAY BRIDGE APT CLOUDY    68  66  94 MISG      30.03R FOG
LEONARDTOWN    CLOUDY    68  66  94 E5        30.01R
DOVER          LGT RAIN  68  68 100 NE22      30.03R
GEORGETOWN     CLOUDY    71  67  87 E9        30.04R
EASTON         LGT RAIN  72  66  83 E5        30.06R
CAMBRIDGE      MOCLDY    68  66  94 NE3       29.99S
SALISBURY      CLOUDY    71  69  93 E9        30.01R
OCEAN CITY     CLOUDY    73  69  87 E14       30.02R
WALLOPS ISLAND CLOUDY    73  70  90 E12       30.01R
ACCOMACK*      CLOUDY    74  69  84 E6        29.98F
$$

NCZ012>017-030>032-282300-
NORTH CENTRAL AND EASTERN NORTH CAROLINA

CITY           SKY/WX    TMP DP  RH WIND       PRES   REMARKS
ROANOKE RAPIDS FAIR      72  70  94 CALM      29.93S
RALEIGH        CLOUDY    76  71  85 S10       29.92S THUNDER
ELIZABETH CITY PTCLDY    77  70  79 SE13      29.98R
AHOSKIE*       HVY RAIN  73  72  97 CALM      29.95R
EDENTON*       CLEAR     82  72  71 E10       29.96R
CURRITUCK*     NOT AVBL
KILL DEVIL HLS CLEAR     80  73  79 SE8       29.98R
MANTEO         CLEAR     77  69  75 SE10      29.99R
CAPE HATTERAS  PTCLDY    78  70  76 E7        29.98S
TARBORO*       LGT RAIN  77  73  88 N5        29.93S
GOLDSBORO      SUNNY     82  74  77 SE6       29.91R
WASHINGTON     MOSUNNY   81  72  74 SE10      29.94S
GREENVILLE     SUNNY     84  72  65 SE8       29.95S
NEW BERN       MOSUNNY   80  69  69 S8        29.96R
WILMINGTON     SUNNY     81  70  69 SE10      29.94R
$$

VAZ048-282300-
ELSEWHERE

CITY           SKY/WX    TMP DP  RH WIND       PRES   REMARKS
HARRISBURG PA  LGT RAIN  67  65  93 E8        30.07R
BALTIMORE      RAIN      68  65  90 NE15      30.03R FOG
ANNAPOLIS      RAIN      71  68  90 E16       30.02R
ANDREWS AFB    LGT RAIN  68  64  88 NE8       30.00S
PHILADELPHIA   CLOUDY    66  61  84 E17G26    30.10R
HENDERSON NC   CLOUDY    74  68  81 SE8       29.92R
GREENSBORO     TSTM      73  70  90 E6        29.89F
ROCKY MOUNT    LGT RAIN  72  72 100 SE3       29.92R FOG
$$

VAZ100-282300-
MARINE

STATION/POSITION TIME  TEMP    WIND        PRES    WAVE   SWELL
                       AIR SEA DIR/SP/G            HT/PER HT/PER
                 (UTC) (F)     (DEG/KT/KT) (MB)    (FT/S) (FT/S)
BRANDYWINE LGT   2148   69      80/ 22/ 25   N/A
CAPE MAY NJ      2148   69 72   60/ 11/ 18 1016.9R
LEWES DE         2148   71 71   90/ 18/ 22 1016.7R
OCEAN-CITY-INLET 2148   72 73   90/ 10/ 16 1017.0R
WACHAPREAGUE VA  2148   73 75   70/ 11/ 15 1015.4F
THOMAS POINT MD  2200   69 74   90/ 17/ 18 1017.3R
GOOSES REEF MD   2150   71      90/ 14/ 17 1015.9R
COVE POINT MD    2148   71     100/ 13/ 15 1016.0S
SOLOMONS ISLAND  2142   71 74   70/ 12/ 16   N/A
BISHOPS HEAD MD  2148   72 71   80/ 11/ 14 1015.4S
PINEY POINT MD   2142          120/ 14/ 16   N/A
POTOMAC MD       2150   73     120/ 17/ 21 1013.7F
CAMBRIDGE MD     2148   71 72   70/ 10/ 14 1015.1R
LEWISETTA VA     2148   73 73  120/ 21/ 24 1013.9F
RAPPAHANNOCK LGT 2142          100/ 17/ 20 1015.2F
STINGRAY PT      2150   75      70/ 17/ 21 1014.9S
YORK RVR RNG VA  2148   75     140/ 20/ 23 1013.6F
YORKTOWN VA      2148   75 76  130/ 14/ 19 1013.7F
JAMESTOWN VA     2150   74     110/ 12/ 16   N/A
DOMINION TERM VA 2148   76     130/ 13/ 17 1014.6R
KIPTOPEKE VA     2142      76  130/ 10/ 12   N/A
CHES BAY BRIDGE  2148   75 76  110/  8/ 13 1014.7S
CAPE HENRY VA    2148   75     130/ 13/ 16   N/A
WILLOUBY STN VA  2148   76     110/ 10/ 12   N/A
CAPE HENRY BUOY  2142      76                N/A     3/ 7   2/11
1ST LANDING BUOY 2150   76     150/ 16/ 17 1014.5R
CAPE CHARLES BUO 2056      77                N/A     4/ 6   2/12
OFFSHORE WE BUOY 2151      76                N/A     4/ 7   2/11
64NM E OF VA BCH 2150   76 76  100/  6/  6 1015.2R   4/ 7   3/ 7
DUCK PIER NC     2148   77 78  120/ 13/ 14 1014.8R
44056 DUCK FRF   2141      77                N/A     3/12   2/12
OREGON INLET NC  2148   77 79  100/  5/  9 1015.5R
HATTERAS NC      2148   78 78  110/  5/  8 1014.9S
DIAMOND SHLS NC  2150   80 84  120/  4/  6 1015.1R   4/11   3/11
CAPE LOOKOUT NC  2200   79     130/  9/ 10 1014.5R
$$




USA.gov is the U.S. government's official web portal to all federal, state and local government web resources and services.